OpenBCM V1.13 (Linux)

Packet Radio Mailbox

DB0FHN

[JN59NK Nuernberg]

 Login: GUEST





  
UA9FBV > KEPS     26.11.04 10:38l 165 Lines 7769 Bytes #999 (0) @ AMSAT
BID : ORB04330.N
Read: GUEST DL7NDR
Subj: 2Line Orbital Elements 04330.AMSAT
Path: DB0FHN<DB0RGB<OK0PPL<RZ6HXA<UA6EM<UA9FBV
Sent: 041126/0832Z @:UA9FBV.PRM.RUS.AS #:11655 [Perm] GATEWAY $:ORB04330.N
From: UA9FBV@UA9FBV.PRM.RUS.AS
To  : KEPS@AMSAT


HR AMSAT ORBITAL ELEMENTS FOR AMATEUR SATELLITES IN NASA FORMAT
FROM WA5QGD FORT WORTH,TX November 25, 2004
SEND SUBSCRIBE/UNSUBSCRIBE TO majordomo@amsat.org ONLY
BID: ORB04330.N

DECODE 2-LINE ELSETS WITH THE FOLLOWING KEY:
1 AAAAAU 00  0  0 BBBBB.BBBBBBBB  .CCCCCCCC  00000-0  00000-0 0  DDDZ
2 AAAAA EEE.EEEE FFF.FFFF GGGGGGG HHH.HHHH III.IIII JJ.JJJJJJJJKKKKKZ
KEY: A-CATALOGNUM B-EPOCHTIME C-DECAY D-ELSETNUM E-INCLINATION F-RAAN
G-ECCENTRICITY H-ARGPERIGEE I-MNANOM J-MNMOTION K-ORBITNUM Z-CHECKSUM

TO ALL RADIO AMATEURS BT

AO-07
1 07530U 74089B   04329.76769709 -.00000029  00000-0  10000-3 0  3510
2 07530 101.6595  13.8624 0011984 270.3149  89.6550 12.53569583374034
AO-10
1 14129U 83058B   04330.33895446 -.00000124  00000-0  10000-3 0  1245
2 14129  26.8253  59.8461 6031978 143.5706 278.7166  2.05869960161334
UO-11
1 14781U 84021B   04330.32373556  .00000325  00000-0  51300-4 0  6440
2 14781  98.1900 317.9555 0008067 297.2026  62.8367 14.79080283111663
RS-10/11
1 18129U 87054A   04330.15820584  .00000027  00000-0  13565-4 0  5469
2 18129  82.9268  29.0571 0010245 230.3386 129.6875 13.72748801873084
FO-20
1 20480U 90013C   04330.52207715 -.00000033  00000-0  26488-5 0  7501
2 20480  99.0212 177.4620 0540523 341.3592  16.8397 12.83343404693376
RS-12/13
1 21089U 91007A   04330.33635895  .00000055  00000-0  42413-4 0  7715
2 21089  82.9223  62.1725 0027809 289.1748  70.6398 13.74444129692498
RS-15
1 23439U 94085A   04330.50234015 -.00000039  00000-0  10597-3 0  8220
2 23439  64.8149  76.9540 0157930 352.3460   7.5057 11.27550470408428
FO-29
1 24278U 96046B   04330.76098919 -.00000069  00000-0 -31914-4 0  8311
2 24278  98.5777  41.5051 0350733 343.4479  15.5440 13.52905019408689
SO-33
1 25509U 98061B   04329.69655965  .00000792  00000-0  14474-3 0  2448
2 25509  31.4276 108.3869 0356415 178.9133 181.2303 14.27921087317579
AO-40
1 26609U 00072B   04330.29044552 -.00000109  00000-0  10000-3 0  4601
2 26609   9.2855 333.0815 7960977 341.7979   1.1121  1.25586037 18699
UO-14
1 20437U 90005B   04329.93975233  .00000051  00000-0  34556-4 0  6461
2 20437  98.2020 345.0348 0011793  82.0658 278.1869 14.31384090774817
AO-16
1 20439U 90005D   04330.54081140  .00000062  00000-0  38385-4 0  3369
2 20439  98.2294   0.4880 0011982  87.2295 273.0273 14.31643903774958
WO-18
1 20441U 90005F   04330.62594706  .00000065  00000-0  39564-4 0  5262
2 20441  98.2424   4.7166 0012661  87.9076 272.3558 14.31718845775024
LO-19
1 20442U 90005G   04330.10936392  .00000051  00000-0  34392-4 0  2612
2 20442  98.2527   8.4117 0012855  87.3376 272.9295 14.31890518775019
UO-22
1 21575U 91050B   04329.98096618  .00000177  00000-0  70036-4 0  2639
2 21575  98.2149 297.3522 0007171 353.9505   6.1611 14.39438258701124
KO-23
1 22077U 92052B   04330.76749123 -.00000037  00000-0  10000-3 0  3220
2 22077  66.0880 212.4615 0012261 304.7657  55.2198 12.86427536577422
AO-27
1 22825U 93061C   04329.96634130  .00000181  00000-0  87495-4 0  9973
2 22825  98.2439 330.3833 0009129 142.9783 217.2038 14.29099888582055
IO-26
1 22826U 93061D   04330.59216198  .00000079  00000-0  47052-4 0  6669
2 22826  98.2413 332.2639 0009504 139.1511 221.0379 14.29337414582205
KO-25
1 22828U 93061F   04329.86440549  .00000096  00000-0  53375-4 0  9306
2 22828  98.2354 331.8035 0010745 121.0800 239.1432 14.29655229550321
TO-31
1 25396U 98043C   04330.73462278 -.00000043  00000-0  00000 0 0  1111
2 25396  98.5580  37.8308 0003366  65.7127 294.4424 14.23645532331468
GO-32
1 25397U 98043D   04330.73482316  .00000052  00000-0  41790-4 0  6094
2 25397  98.5495  35.7283 0002110  81.1023 279.0424 14.23060617331392
UO-36
1 25693U 99021A   04330.73937974  .00000010  00000-0  21087-4 0  6760
2 25693  64.5590 188.4778 0042640 237.8332 121.8628 14.78424446301740
SO-41
1 26545U 00057A   04330.59120725  .00000356  00000-0  65652-4 0  9368
2 26545  64.5583 204.7157 0027634 340.7226  19.2838 14.79940891224794
MO-46
1 26548U 00057D   04330.01549547  .00000549  00000-0  85969-4 0   374
2 26548  64.5579 191.6447 0026863 327.2301  32.7129 14.82517674225017
SO-42
1 26549U 00057E   04330.08921829  .00000447  00000-0  79491-4 0  9941
2 26549  64.5570 213.7770 0027590 351.1604   8.9001 14.78828651224573
NO-44
1 26931U 01043C   04330.42065487 -.00000078  00000-0  20306-5 0  9065
2 26931  67.0548  32.5837 0007244 267.8002  92.2238 14.29341054164643
AO-49
1 27605U 02058A   04330.65751133  .00000309  00000-0  68274-4 0  5940
2 27605  64.5599  34.1206 0085160 279.7926  79.3567 14.71982256103891
SO-50
1 27607U 02058C   04330.68086769  .00000551  00000-0  10720-3 0  5762
2 27607  64.5610  38.5610 0086096 278.7500  80.3863 14.70802082103809
AO-51
1 28375U 04025K   04330.73845425  .00000116  00000-0  48080-4 0  1178
2 28375  98.2434  35.0641 0084864 124.9286 235.9914 14.40412893 21325
NOAA-10
1 16969U 86073A   04330.25275201  .00000165  00000-0  85648-4 0  4856
2 16969  98.7617 329.5696 0012491  11.0430 349.1028 14.27227052946005
NOAA-11
1 19531U 88089A   04330.32835599 -.00000192  00000-0 -76541-4 0  3429
2 19531  98.8593  53.0965 0012007 163.9831 196.1724 14.14739186834102
NOAA-12
1 21263U 91032A   04330.26822900  .00000154  00000-0  83831-4 0  8297
2 21263  98.6842 316.4134 0012064 303.8286  56.1740 14.25432803703193
MET-3/5
1 21655U 91056A   04330.80576690  .00000051  00000-0  10000-3 0  6785
2 21655  82.5546 302.3333 0013838  26.7207 333.4651 13.16999351638543
MET-2/21
1 22782U 93055A   04330.26456061  .00000088  00000-0  66538-4 0   644
2 22782  82.5503  62.7500 0021659 338.9904  21.0375 13.83575793567372
OKEAN-4
1 23317U 94066A   04330.39005220  .00000845  00000-0  10304-3 0  4816
2 23317  82.5389  87.3840 0024005  87.6301 272.7664 14.81977576545721
NOAA-14
1 23455U 94089A   04330.29119555  .00000128  00000-0  92686-4 0  3648
2 23455  99.1217   8.9987 0009220 210.7369 149.3254 14.13512361510698
SICH-1
1 23657U 95046A   04330.40934315  .00000677  00000-0  83894-4 0  2849
2 23657  82.5304 228.1745 0025981  73.1802 287.2248 14.81002291497799
NOAA-15
1 25338U 98030A   04330.16223550  .00000078  00000-0  52110-4 0  8127
2 25338  98.5177 338.6910 0009819 232.4101 127.6201 14.24469243339700
RESURS
1 25394U 98043A   04329.88985850  .00000040  00000-0  36169-4 0  9551
2 25394  98.5658  38.6613 0002143  58.2614 301.8770 14.24036711331371
FENGYUN1
1 25730U 99025A   04329.59957650 -.00000095  00000-0 -29095-4 0  2871
2 25730  98.6061 333.6089 0013785 327.1905  32.8430 14.11782856285640
OKEAN-0
1 25860U 99039A   04330.67769016  .00000247  00000-0  45672-4 0  2885
2 25860  97.7801 359.2969 0001959 114.3841 245.7592 14.73157335288049
NOAA-16
1 26536U 00055A   04330.17064175 -.00000162  00000-0 -63359-4 0  1165
2 26536  98.9843 281.7613 0009871 285.3026  74.7055 14.12177737215268
NOAA-17
1 27453U 02032A   04330.32950951  .00000060  00000-0  45416-4 0  1376
2 27453  98.6860  40.7154 0010967 287.2478  72.7519 14.23598857125834
HUBBLE
1 20580U 90037B   04330.87167497  .00001121  00000-0  76131-4 0  2140
2 20580  28.4673 153.2896 0004123 269.5938  90.4179 14.99454423599696
UARS
1 21701U 91063B   04330.44259648 -.00000013  00000-0  17742-4 0  3187
2 21701  56.9811 295.8880 0004489  83.7180 276.4374 15.03689198722841
PO-34
1 25520U 98064B   04329.12927931  .00001635  00000-0  73178-4 0   584
2 25520  28.4610 242.8834 0005698 156.0374 204.0482 15.15922392335439
ISS
1 25544U 98067A   04330.99699074  .00027216  00000-0  22011-3 0  2241
2 25544  51.6391 219.9608 0004466  47.2409 144.9327 15.70597224343730
OO-38
1 26063U 00004C   04329.93486633  .00000070  00000-0  44493-4 0  2180
2 26063 100.2239 146.3861 0036564 270.1909  89.5100 14.35684728252984
NO-45
1 26932U 01043D   04330.33479424  .00000016  00000-0  38756-4 0  9019
2 26932  67.0611  32.4508 0007454 282.6592  77.3679 14.29456007164661


Read previous mail | Read next mail


 12.09.2026 00:37:05lGo back Go up